Deer Park, WA
on Saturday, November 10, 2012

Saturday
Previous Day Next Day
Daily Summary
 ActualAverageRecord
Temperature
Mean Temperature °F 36°F  
Max Temperature 32°F 44°F 55°F (2004)
Min Temperature 11°F 28°F 5°F (2000)
Degree Days
Heating Degree Days 43 29  
Month to date heating degree days 242 278  
Since 1 July heating degree days 1154 1346  
Cooling Degree Days 0 0  
Month to date cooling degree days 0 0  
Year to date cooling degree days 232 187  
Moisture
Dew Point 19°F   
Average Humidity 82    
Maximum Humidity 100    
Minimum Humidity 63    
Precipitation
Precipitation 0.00 in 0.10 in 0.90 in (2006)
Month to date precipitation 0.47 1.02  
Year to date precipitation 20.47 17.08  
Wind
Wind Speed 3 mph   
Max Wind Speed 12 mph   
Max Gust Speed 14 mph   
Visibility 10 miles   
Events     

Key: T is trace of precipitation, MM is missing value
Source: NWS Daily Summary
Time(PST)TemperatureDew PointHumidity Pressure Visibility Wind DirectionWind SpeedGust SpeedPrecipitationEvents Conditions
12:53 AM 27.0°F 21.9°F 81% 29.96 in 10.0 miles NE 8.1 mph - N/A   Overcast
1:53 AM 27.0°F 23.0°F 85% 29.98 in 10.0 miles NNE 6.9 mph - N/A   Overcast
2:53 AM 26.1°F 21.9°F 84% 29.98 in 10.0 miles NE 4.6 mph - N/A   Overcast
3:53 AM 25.0°F 21.0°F 85% 29.99 in 10.0 miles NNE 5.8 mph - N/A   Overcast
4:53 AM 23.0°F 19.9°F 88% 30.01 in 10.0 miles NNE 6.9 mph - N/A   Overcast
5:53 AM 21.0°F 18.0°F 88% 30.02 in 10.0 miles NE 8.1 mph - N/A   Partly Cloudy
6:53 AM 19.9°F 17.1°F 89% 30.04 in 10.0 miles NE 5.8 mph - N/A   Scattered Clouds
7:53 AM 19.9°F 17.1°F 89% 30.06 in 10.0 miles NE 5.8 mph - N/A   Partly Cloudy
8:53 AM 24.1°F 19.9°F 84% 30.07 in 10.0 miles NE 5.8 mph - N/A   Mostly Cloudy
9:53 AM 27.0°F 19.9°F 75% 30.08 in 10.0 miles NE 8.1 mph - N/A   Clear
10:53 AM 28.0°F 19.9°F 72% 30.09 in 10.0 miles NE 5.8 mph - N/A   Clear
11:53 AM 30.0°F 19.9°F 66% 30.08 in 10.0 miles ENE 4.6 mph - N/A   Clear
12:53 PM 30.9°F 21.0°F 67% 30.09 in 10.0 miles NNE 3.5 mph - N/A   Clear
1:53 PM 28.9°F 19.9°F 69% 30.11 in 10.0 miles Calm Calm - N/A   Clear
2:53 PM 30.0°F 21.0°F 69% 30.12 in 10.0 miles Calm Calm - N/A   Clear
3:53 PM 26.1°F 19.9°F 78% 30.14 in 10.0 miles Calm Calm - N/A   Clear
4:53 PM 23.0°F 19.9°F 88% 30.17 in 10.0 miles Calm Calm - N/A   Mostly Cloudy
5:53 PM 19.9°F 19.0°F 96% 30.19 in 8.0 miles Calm Calm - N/A   Partly Cloudy
6:53 PM 18.0°F 16.0°F 92% 30.20 in 10.0 miles Calm Calm - N/A   Clear
7:53 PM 15.1°F 14.0°F 95% 30.20 in 10.0 miles Calm Calm - N/A   Clear
9:53 PM 15.1°F 12.9°F 91% 30.22 in 10.0 miles Calm Calm - N/A   Clear
10:53 PM 15.1°F 14.0°F 95% 30.23 in 6.0 miles Calm Calm - N/A   Clear
11:53 PM 12.9°F 12.0°F 96% 30.25 in 6.0 miles Calm Calm - N/A   Scattered Clouds
Moon Phase
Nov. 10 Nov. 13 Nov. 20 Nov. 28 Dec. 06
Sunrise:06:49 AM (PST) Moon Rise:02:44 AM (PST)11/10
Sunset:04:17 PM (PST) Moon Set:02:19 PM (PST)11/10

Copyright © 2014 The Weather Underground, Inc.